TimeEST,TemperatureF,Dew PointF,Humidity,Sea Level PressureIn,VisibilityMPH,Wind Direction,Wind SpeedMPH,Gust SpeedMPH,PrecipitationIn,Events,Conditions,WindDirDegrees,DateUTC
12:56 AM,50.0,45.0,83,29.52,10.0,NNW,16.1,-,N/A,,Overcast,330,2011-11-11 05:56:00
1:56 AM,48.9,42.1,77,29.53,10.0,NNW,16.1,23.0,N/A,,Overcast,330,2011-11-11 06:56:00
2:56 AM,48.0,42.1,80,29.51,10.0,NNW,15.0,-,0.00,Rain,Light Rain,330,2011-11-11 07:56:00
3:56 AM,46.9,42.1,83,29.47,10.0,North,10.4,-,0.00,,Overcast,350,2011-11-11 08:56:00
4:56 AM,46.0,41.0,83,29.49,10.0,WNW,13.8,-,N/A,,Overcast,300,2011-11-11 09:56:00
5:56 AM,44.1,37.9,79,29.50,10.0,NW,11.5,21.9,N/A,,Overcast,320,2011-11-11 10:56:00
6:36 AM,44.6,35.6,71,29.51,10.0,NW,11.5,23.0,N/A,,Overcast,320,2011-11-11 11:36:00
6:48 AM,44.6,35.6,71,29.52,10.0,NW,11.5,20.7,N/A,,Scattered Clouds,310,2011-11-11 11:48:00
6:56 AM,44.6,35.6,71,29.52,10.0,NW,10.4,-,N/A,,Partly Cloudy,310,2011-11-11 11:56:00
7:56 AM,44.1,35.1,71,29.55,10.0,WNW,12.7,-,N/A,,Clear,300,2011-11-11 12:56:00
8:56 AM,46.4,33.8,62,29.54,10.0,NW,17.3,25.3,N/A,,Clear,310,2011-11-11 13:56:00
9:56 AM,48.0,33.1,56,29.56,10.0,WNW,20.7,28.8,N/A,,Mostly Cloudy,300,2011-11-11 14:56:00
10:56 AM,48.0,32.0,54,29.57,10.0,WNW,19.6,25.3,N/A,,Overcast,290,2011-11-11 15:56:00
11:56 AM,48.9,30.0,48,29.57,10.0,WNW,16.1,27.6,N/A,,Partly Cloudy,300,2011-11-11 16:56:00
12:56 PM,48.9,28.0,44,29.59,10.0,WNW,13.8,20.7,N/A,,Overcast,300,2011-11-11 17:56:00
1:56 PM,50.0,25.0,38,29.61,10.0,NW,19.6,27.6,N/A,,Scattered Clouds,310,2011-11-11 18:56:00
2:56 PM,48.0,23.0,37,29.65,10.0,WNW,16.1,29.9,N/A,,Scattered Clouds,290,2011-11-11 19:56:00
3:56 PM,46.9,23.0,39,29.68,10.0,WNW,15.0,27.6,N/A,,Scattered Clouds,290,2011-11-11 20:56:00
4:56 PM,46.4,24.8,43,29.72,10.0,West,12.7,21.9,N/A,,Clear,280,2011-11-11 21:56:00
5:56 PM,45.0,25.0,46,29.76,10.0,West,9.2,-,N/A,,Clear,270,2011-11-11 22:56:00
6:56 PM,45.0,26.1,48,29.80,10.0,WNW,10.4,18.4,N/A,,Mostly Cloudy,290,2011-11-11 23:56:00
7:56 PM,41.0,28.9,62,29.83,10.0,WNW,8.1,-,N/A,,Clear,290,2011-11-12 00:56:00
8:56 PM,41.0,30.9,67,29.86,10.0,WNW,5.8,-,N/A,,Clear,290,2011-11-12 01:56:00
9:56 PM,42.1,28.9,60,29.88,10.0,West,10.4,-,N/A,,Clear,260,2011-11-12 02:56:00
10:56 PM,42.1,28.9,60,29.91,10.0,West,10.4,-,N/A,,Clear,260,2011-11-12 03:56:00
11:56 PM,42.1,28.0,58,29.94,10.0,West,9.2,-,N/A,,Clear,260,2011-11-12 04:56:00